Location: Lancaster
(34.6980°N, 118.1360°W)
Time: 11:17:17
(UTC-07:00)

Vanguard 2 - All Passes

Search period start: 22 April 2018 00:00
Search period end: 02 May 2018 00:00
Orbit: 553 x 2939 km, 32.9° (Epoch: 22 April)

Date Brightness Start Highest point End Pass type
(mag) Time Alt. Az. Time Alt. Az. Time Alt. Az.
22 Apr - 01:36:22 10° W 01:42:37 74° S 01:46:55 10° E night (unlit)
22 Apr - 03:46:31 10° W 03:50:33 34° SSW 03:54:10 10° SE visible
22 Apr - 19:24:41 10° S 19:32:24 17° SSE 19:38:33 10° ESE daylight
22 Apr - 21:31:58 10° SW 21:42:45 39° SSE 21:49:33 10° E visible
22 Apr - 23:43:14 10° WSW 23:52:06 67° S 23:57:29 10° E visible
23 Apr - 01:54:38 10° W 02:00:41 68° S 02:04:53 10° ESE night (unlit)
23 Apr - 04:04:56 10° W 04:08:26 24° SSW 04:11:39 10° SSE visible
23 Apr - 19:40:21 10° SSW 19:50:39 24° SSE 19:58:12 10° ESE visible
23 Apr - 21:49:35 10° SW 22:00:55 49° SSE 22:07:49 10° E visible
24 Apr - 00:01:29 10° WSW 00:10:13 74° S 00:15:30 10° E visible
24 Apr - 02:12:54 10° W 02:18:42 58° SSW 02:22:49 10° ESE night (unlit)
24 Apr - 04:23:44 10° WSW 04:26:16 15° SSW 04:28:39 10° S visible
24 Apr - 17:54:51 10° SSE 17:57:54 11° SE 18:00:45 10° SE daylight
24 Apr - 19:56:54 10° SSW 20:08:54 31° SSE 20:17:06 10° E visible
24 Apr - 22:07:29 10° WSW 22:19:05 59° SSE 22:25:56 10° E visible
25 Apr - 00:19:49 10° W 00:28:20 77° S 00:33:31 10° E visible
25 Apr - 02:31:10 10° W 02:36:39 45° SSW 02:40:38 10° SE night (unlit)
25 Apr - 18:07:23 10° S 18:16:10 17° SE 18:23:29 10° ESE daylight
25 Apr - 20:14:00 10° SW 20:27:06 40° SSE 20:35:38 10° E visible
25 Apr - 22:25:36 10° WSW 22:37:14 68° SSE 22:44:00 10° E visible
26 Apr - 00:38:09 10° W 00:46:26 76° S 00:51:30 10° E visible
26 Apr - 02:49:33 10° W 02:54:30 33° SSW 02:58:17 10° SE night (unlit)
26 Apr - 18:22:45 10° SSW 18:34:23 24° SSE 18:43:26 10° E daylight
26 Apr - 20:31:29 10° SW 20:45:17 49° SSE 20:53:58 10° E visible
26 Apr - 22:43:53 10° WSW 22:55:23 75° S 23:02:02 10° E visible
27 Apr - 00:56:31 10° W 01:04:30 69° SSW 01:09:27 10° ESE visible
27 Apr - 03:08:07 10° W 03:12:17 23° SSW 03:15:37 10° SSE night (unlit)
27 Apr - 18:39:04 10° SSW 18:52:34 31° SSE 19:02:32 10° E daylight
27 Apr - 20:49:17 10° SW 21:03:28 59° SSE 21:12:08 10° E visible
27 Apr - 23:02:16 10° W 23:13:33 79° S 23:20:03 10° E visible
28 Apr - 01:14:52 10° W 01:22:30 58° SSW 01:27:20 10° ESE visible
28 Apr - 03:27:10 10° WSW 03:29:57 15° SW 03:32:22 10° S night (unlit)
28 Apr - 16:50:46 10° S 16:59:29 16° SE 17:07:16 10° ESE daylight
28 Apr - 18:55:57 10° SSW 19:10:45 40° SSE 19:21:13 10° E daylight
28 Apr - 21:07:20 10° WSW 21:21:40 67° SSE 21:30:15 10° E visible
28 Apr - 23:20:41 10° W 23:31:43 80° S 23:38:05 10° E visible
29 Apr - 01:33:14 10° W 01:40:25 46° SSW 01:45:06 10° SE visible
29 Apr - 17:05:38 10° S 17:17:36 23° SE 17:27:46 10° E daylight
29 Apr - 19:13:17 10° SW 19:28:56 49° SSE 19:39:37 10° E daylight
29 Apr - 21:25:35 10° WSW 21:39:53 75° S 21:48:19 10° E visible
29 Apr - 23:39:07 10° W 23:49:50 76° S 23:56:04 10° ESE visible
30 Apr - 01:51:42 10° W 01:58:13 34° SSW 02:02:39 10° SE visible
30 Apr - 17:21:39 10° SSW 17:35:41 30° SE 17:47:11 10° E daylight
30 Apr - 19:30:56 10° SW 19:47:07 58° SSE 19:57:53 10° E daylight
30 Apr - 21:43:57 10° WSW 21:58:06 80° S 22:06:23 10° E visible
30 Apr - 23:57:33 10° W 00:07:56 69° SSW 00:14:00 10° ESE visible
01 May - 02:10:23 10° W 02:15:53 24° SW 02:19:53 10° SSE night (unlit)
01 May - 15:35:32 10° SSE 15:42:33 13° SE 15:49:19 10° ESE daylight
01 May - 17:38:19 10° SSW 17:53:46 38° SSE 18:06:03 10° E daylight
01 May - 19:48:51 10° WSW 20:05:20 66° SSE 20:16:02 10° E visible
01 May - 22:02:24 10° W 22:16:20 82° S 22:24:26 10° E visible
